User: anonymous   Login
Location: Brabourne
(51.1333°N, 1.0000°E)
Time: 05:08:51
(UTC+00:00)
Language:

USA 215 - Orbit

View from above orbital plane
View from above orbital plane
View from above satellite
View from above satellite

Ground track
Ground track

The orbit data is extracted from the following two-line orbital elements,

1 37162U 10046A   21264.83824576 0.00000000  00000-0  00000-0 0    01
2 37162 123.0041 329.2951 0004437 231.6004 128.3995 13.41431687    02
Epoch (UTC): 21 September 2021 20:07:04
Eccentricity: 0.0004437
inclination: 123.0041°
perigee height: 1100 km
apogee height: 1107 km
right ascension of ascending node: 329.2951°
argument of perigee: 231.6004°
revolutions per day: 13.41431687
mean anomaly at epoch: 128.3995°
orbit number at epoch: 0

The dashed part of the orbit path shows where the satellite is in the earth's shadow,  

DLR